sat.trackr.live / text

‹ back to catalog

STARLINK-36874

NORAD 67981 · 2026-038W

PAYLOAD ACTIVE UNKNOWN

§ Identity

Operator
Country
US
Launch date
2026-02-25
Launch site
AFWTR
Launch vehicle
Mass (kg)
RCS (m²)

Purposes: comms

External: N2YO · Heavens-Above · Gunter

§ Orbital elements

Epoch: 2026-09-19T18:11:41.775360Z

Period
93.90 min
Inclination
97.2850°
Eccentricity
0.0001412
Mean motion
15.33477221 rev/d
Perigee alt
464.5 km
Apogee alt
466.4 km
Semi-major
6,843.6 km
B*
7.4725e-4
RAAN
271.1698°
Arg perigee
103.2752°
Mean anomaly
256.8648°
Rev number
3,298

§ Raw data

STARLINK-368741 67981U 26038W   26262.75812240  .00024151  00000+0  74725-3 0  99972 67981  97.2850 271.1698 0001412 103.2752 256.8648 15.33477221 32982

JSON: /api/v1/satellites/67981 · /tle

For live sub-satellite position, see the globe view (requires WebGL).

§ Visibility from observer

Set your observer location to see the next 7 days of passes ≥ 10°. The values pass through the URL so the page stays shareable.

No JS? Fill the form by hand. The geolocation button needs JavaScript.